Voltar ao catálogo

STARLINK-35176

AtivoComunicaçõesSSO
NORAD 65662·PAYLOAD·🇺🇸 United States

Lançado Sep 19, 2025 de Vandenberg Space Force Base

Loading…

Próximas Passagens (próximas 24 horas)

TLE

AtualizadoSource: CelesTrak SupGP

Época: Sep 15, 2026, 02:53 UTC

1 65662C 25211L   26258.12062500  .00013453  00000+0  41765-3 0  2584
2 65662  97.2835 298.4985 0001072  87.3229 269.1663 15.33430626    14

Acompanhe STARLINK-35176 em tempo real com AllMySat

Download on the App Store